Вернуться в каталог

STARLINK-36663

АктивенСвязьVLEO
NORAD 67919·PAYLOAD·🇺🇸 United States

Запущен Feb 22, 2026 с Vandenberg Space Force Base

Loading…

Ближайшие Пролёты (ближайшие 24 часа)

TLE

СвежийSource: CelesTrak SupGP

Эпоха: Sep 15, 2026, 03:45 UTC

1 67919C 26036R   26258.15673611 -.00022381  00000+0 -81081-3 0  2588
2 67919  42.9997 254.8866 0001258 267.4416  61.1211 15.27583202    17

Отслеживайте STARLINK-36663 в реальном времени с AllMySat

Download on the App Store